[[{"header":{"parameterUnit":"m.s-1","parameterCategory":2,"la1":30.2991,"la2":30.254,"lo1":-89.0895,"lo2":-89.0444,"dy":0.0017,"dx":0.0017,"nx":28,"ny":28,"refTime":"2025-06-01T21:00:00:Z","depth":"0","parameterNumber":2,"parameterNumberName":"U-component_of_CURRENTS"},"data":[0,0,0,0,0,0,0,0,0,0,0,0,0,0,0,0,0,0,0,0,0,0,0,0,0,0,0,0,0,0,0,0,0,0,0,0,0,0,0,0,0,0,0,0,0,0,0,0,0,0,0,0,0,0,0,0,0,0,0.1645,0.1646,0,0.1691,0.1691,0.1692,0.169,0.169,0.1689,0.1689,0.165,0.1649,0.1648,0,0,0,0,0,0,0,0,0,0,0,0,0,0.1492,0.1494,0.1645,0.1646,0.1647,0.1691,0.1691,0.1692,0.169,0.169,0.1689,0.1689,0.1651,0.1649,0.1648,0,0,0,0,0,0,0,0,0,0,0,0,0,0.1545,0.1495,0.1645,0.1656,0.1658,0.1691,0.1691,0.1692,0.169,0.169,0.1689,0.1689,0.1651,0.165,0.1648,0.1643,0,0,0.1644,0.1643,0,0,0,0,0,0,0,0,0.1542,0.155,0.1653,0.1655,0.1658,0.169,0.1624,0.1673,0.169,0.1671,0.1689,0.1689,0.1659,0.1657,0.1659,0.1641,0.1639,0.1644,0.1643,0.1642,0.1642,0,0,0,0,0,0,0,0.1538,0.1547,0.1657,0.1655,0.1657,0.1637,0.1645,0.1632,0.166,0.1673,0.1674,0.1689,0.1659,0.1661,0.1658,0.1639,0.1644,0.1643,0.1642,0.1641,0.1681,0.1683,0,0,0,0,0,0,0.1549,0.1545,0.1656,0.1659,0.1605,0.1641,0.1649,0.1675,0.1662,0.1662,0.1689,0.1689,0.1663,0.166,0.1657,0.173,0.1642,0.1641,0.164,0.1679,0.1681,0.1683,0,0,0,0,0,0,0.1545,0.1558,0.1654,0.1606,0.1618,0.1645,0.1673,0.1676,0.1685,0.1676,0.1673,0.1697,0.1663,0.1659,0.1664,0.1726,0.164,0.1639,0.1677,0.168,0.1682,0.1825,0,0,0,0,0,0,0.1541,0.1557,0.1572,0.1608,0.1622,0.1683,0.1674,0.1677,0.1697,0.1697,0.1682,0.1678,0.1663,0.1667,0.1663,0.1722,0.1638,0.1674,0.1678,0.1681,0.1818,0.1833,0.1845,0,0,0,0,0,0.1535,0.1562,0.1573,0.1586,0.1645,0.1684,0.1689,0.1702,0.1697,0.1707,0.1703,0.1678,0.1687,0.1667,0.1662,0.1722,0.1673,0.1677,0.1681,0.1812,0.183,0.1845,0,0,0,0,0,0,0.1511,0.1567,0.1579,0.1624,0.1656,0.1686,0.1699,0.1707,0.1712,0.1707,0.1692,0.1689,0.1723,0.1692,0.167,0.1743,0.168,0.1683,0.1781,0.1798,0.1811,0.1886,0.1637,0,0,0,0,0,0.1513,0.1545,0.1593,0.1629,0.1646,0.1671,0.1687,0.1698,0.1713,0.1715,0.1708,0.1708,0.1736,0.174,0.1741,0.1768,0.1798,0.1805,0.1819,0.183,0.1888,0.198,0.2009,0.1697,0.1697,0.1697,0,0,0.1516,0.155,0.1569,0.1625,0.1647,0.1692,0.1679,0.1709,0.1756,0.1708,0.1749,0.1747,0.1752,0.1799,0.1812,0.1781,0.1931,0.1836,0.1846,0.1899,0.1988,0.2019,0.2047,0.17,0.17,0.1699,0,0,0.1546,0.1566,0.1607,0.1636,0.168,0.17,0.1713,0.1746,0.1767,0.1801,0.1804,0.1859,0.1841,0.1906,0.1928,0.2015,0.1999,0.1983,0.2118,0.2206,0.2234,0.2259,0.2329,0.2359,0.1992,0.1992,0.1992,0,0.155,0.1615,0.1622,0.1672,0.171,0.1711,0.177,0.1795,0.1826,0.1865,0.1824,0.1916,0.1922,0.2053,0.2101,0.2058,0.208,0.2058,0.2229,0.2254,0.2278,0.2343,0.2375,0.1999,0.1999,0.1998,0.1997,0,0.1619,0.1668,0.1692,0.1762,0.1793,0.1839,0.1883,0.1912,0.1925,0.1962,0.2062,0.2088,0.2152,0.2169,0.2173,0.2346,0.2299,0.2236,0.2198,0.2319,0.2378,0.2409,0.201,0.2007,0.2005,0.2003,0,0,0.165,0.173,0.1741,0.1784,0.1848,0.188,0.1961,0.205,0.2108,0.2151,0.2253,0.2365,0.2375,0.2407,0.2418,0.2527,0.2722,0.2467,0.2468,0.2557,0.2906,0.2823,0.2847,0.2672,0.2678,0.2683,0.288,0,0.1713,0.1814,0.1843,0.1935,0.1992,0.2021,0.2091,0.2161,0.2206,0.2285,0.238,0.2454,0.2461,0.2493,0.2619,0.2678,0.2809,0.2675,0.2761,0.2765,0.2694,0.2884,0.2792,0.2955,0.2909,0.2914,0.2918,0,0.1783,0.1844,0.1949,0.2029,0.2055,0.2102,0.2207,0.2267,0.2382,0.2419,0.2535,0.2564,0.2762,0.2711,0.2959,0.2857,0.2931,0.2982,0.2988,0.2896,0.2741,0.2827,0.3011,0.291,0.2964,0.296,0.2957,0,0.1811,0.1914,0.1998,0.2031,0.2123,0.2173,0.2213,0.2312,0.2361,0.2503,0.2542,0.2735,0.2805,0.2962,0.3066,0.3023,0.3297,0.3224,0.3239,0.323,0.3171,0.3147,0.3294,0.3446,0.3446,0.3445,0.3445,0,0.1881,0.1942,0.2007,0.2059,0.2132,0.2184,0.2262,0.233,0.242,0.2484,0.2602,0.2685,0.2872,0.301,0.3125,0.3277,0.3342,0.3343,0.3311,0.321,0.3189,0.3105,0.3038,0.3452,0.3451,0.3449,0.3448,0,0.1913,0.1962,0.2047,0.2135,0.2149,0.2196,0.2246,0.2295,0.2382,0.247,0.2515,0.2681,0.2863,0.3025,0.3262,0.332,0.339,0.351,0.3371,0.332,0.3224,0.3166,0.3182,0.3099,0.3603,0.3602,0.3602,0,0.1951,0.2,0.2074,0.2092,0.213,0.2178,0.22,0.2274,0.2312,0.2456,0.2498,0.2686,0.2805,0.3107,0.3273,0.3482,0.337,0.349,0.3426,0.3285,0.3199,0.3026,0.2943,0.3404,0.3402,0.3401,0.34,0,0.2011,0.2023,0.2076,0.2103,0.2125,0.2141,0.2174,0.219,0.2275,0.2344,0.2442,0.2548,0.283,0.2999,0.3246,0.3366,0.3301,0.3462,0.3379,0.315,0.2916,0.2793,0.3182,0.3386,0.3387,0.3388,0.3389,0.339,0.2025,0.2048,0.2079,0.2096,0.2107,0.2085,0.207,0.2108,0.214,0.2218,0.2348,0.2484,0.275,0.309,0.3169,0.3241,0.3213,0.3222,0.3198,0.306,0.2891,0.3242,0.3343,0.3344,0.3345,0.3346,0.3346,0,0.2014,0.2025,0.2056,0.205,0.2019,0.2037,0.2031,0.2002,0.2004,0.2128,0.2208,0.2467,0.2653,0.286,0.3046,0.2999,0.2886,0.2939,0.2713,0.2672,0.3074,0.2972,0.2917,0.2917,0.2917,0.2917,0.2917,0.2918,0.2005,0.2007,0.2012,0.1948,0.1929,0.1855,0.1826,0.1817,0.1874,0.1964,0.2097,0.2261,0.2532,0.277,0.2788,0.2751,0.2546,0.245,0.2421,0.2729,0.2753,0.2776,0.2667,0.2549,0.2548,0.1924,0.1919,0.1916]},{"header":{"parameterUnit":"m.s-1","parameterCategory":2,"la1":30.2991,"la2":30.254,"lo1":-89.0895,"lo2":-89.0444,"dy":0.0017,"dx":0.0017,"nx":28,"ny":28,"refTime":"2025-06-01T21:00:00:Z","depth":"0","parameterNumber":3,"parameterNumberName":"V-component_of_CURRENTS"},"data":[0,0,0,0,0,0,0,0,0,0,0,0,0,0,0,0,0,0,0,0,0,0,0,0,0,0,0,0,0,0,0,0,0,0,0,0,0,0,0,0,0,0,0,0,0,0,0,0,0,0,0,0,0,0,0,0,0,0,0.0018,0.0017,0,-0.0048,-0.0049,-0.005,-0.0078,-0.0078,-0.0078,-0.0078,-0.0152,-0.0154,-0.0156,0,0,0,0,0,0,0,0,0,0,0,0,0,0.0113,0.0112,0.0018,0.0017,0.0016,-0.0048,-0.0049,-0.005,-0.0078,-0.0078,-0.0078,-0.0078,-0.0151,-0.0153,-0.0156,0,0,0,0,0,0,0,0,0,0,0,0,0,0.0063,0.0111,0.0018,-0.0006,-0.0009,-0.0048,-0.0049,-0.005,-0.0078,-0.0078,-0.0078,-0.0078,-0.015,-0.0153,-0.0156,-0.0174,0,0,-0.0165,-0.0166,0,0,0,0,0,0,0,0,0.0066,0.006,-0.0002,-0.0005,-0.0008,-0.0056,-0.0043,-0.0093,-0.0078,-0.0051,-0.0078,-0.0078,-0.0121,-0.0127,-0.0137,-0.0178,-0.0181,-0.0165,-0.0167,-0.0168,-0.0169,0,0,0,0,0,0,0,0.0069,0.0062,-0.0007,-0.0003,-0.0007,-0.0017,-0.0024,-0.0052,-0.0084,-0.0053,-0.0056,-0.0065,-0.0123,-0.0134,-0.0139,-0.0182,-0.0165,-0.0168,-0.017,-0.0171,-0.0206,-0.0206,0,0,0,0,0,0,0.0075,0.0066,-0.0005,-0.0009,0.0028,-0.0019,-0.0027,-0.004,-0.0084,-0.0091,-0.0065,-0.0066,-0.0129,-0.0136,-0.0142,-0.0084,-0.0168,-0.0171,-0.0173,-0.0207,-0.0206,-0.0205,0,0,0,0,0,0,0.0077,0.0069,-0.0002,0.0026,0.0016,-0.0021,-0.0035,-0.0041,-0.0051,-0.0093,-0.01,-0.0069,-0.013,-0.0138,-0.0158,-0.009,-0.0173,-0.0175,-0.0208,-0.0207,-0.0206,-0.0021,0,0,0,0,0,0,0.008,0.0071,0.0071,0.0026,0.0015,-0.0008,-0.0035,-0.0042,-0.0058,-0.006,-0.0099,-0.0106,-0.013,-0.0153,-0.0161,-0.0096,-0.0178,-0.0209,-0.0208,-0.0206,-0.0028,-0.0013,-0.0001,0,0,0,0,0,0.0084,0.009,0.0071,0.0063,0.0014,-0.0008,-0.0013,-0.0039,-0.0058,-0.0051,-0.0082,-0.0105,-0.0148,-0.0155,-0.0164,-0.0098,-0.021,-0.0208,-0.0206,-0.0034,-0.0016,-0.0001,0,0,0,0,0,0,0.0135,0.0085,0.0065,0.0056,0.0031,-0.0012,-0.0009,-0.0036,-0.0057,-0.006,-0.0103,-0.0111,-0.0098,-0.0144,-0.015,-0.011,-0.018,-0.0179,-0.0045,-0.0029,-0.0016,0.0069,-0.018,0,0,0,0,0,0.0144,0.0132,0.0087,0.0081,0.0072,0.0029,0.0018,-0.0003,-0.0032,-0.0042,-0.0071,-0.0099,-0.0099,-0.0102,-0.0125,-0.0111,-0.0131,-0.0077,-0.0064,-0.0051,0.0008,0.0016,0.0038,-0.0199,-0.0199,-0.0199,0,0,0.0162,0.0133,0.0127,0.0091,0.007,0.0088,0.0024,0.0012,0.0045,-0.0047,-0.0018,-0.0059,-0.0091,-0.0061,-0.0058,-0.0087,-0.0003,-0.0049,-0.0037,0.0016,0.0021,0.0044,0.0065,-0.0198,-0.0198,-0.0198,0,0,0.0213,0.0168,0.0189,0.0172,0.0143,0.0124,0.0124,0.0083,0.0086,0.0089,0.0052,0.0063,0.0018,0.0049,0.0052,0.012,0.0063,0.0084,0.0238,0.0245,0.0266,0.0285,0.027,0.0286,0.0099,0.01,0.01,0,0.0242,0.0259,0.0194,0.0216,0.0227,0.0151,0.0199,0.019,0.0152,0.0183,0.0121,0.0136,0.01,0.0199,0.0227,0.0167,0.0132,0.0188,0.027,0.0288,0.0304,0.0284,0.0299,0.0109,0.0108,0.0107,0.0106,0,0.0321,0.0333,0.0344,0.0355,0.0356,0.0374,0.0356,0.0367,0.0346,0.0345,0.0403,0.0356,0.0378,0.0364,0.0323,0.0431,0.0355,0.0283,0.0246,0.034,0.031,0.0324,0.0122,0.0119,0.0116,0.0114,0,0,0.0396,0.0404,0.041,0.0442,0.0433,0.0443,0.051,0.0564,0.0624,0.0598,0.0691,0.0708,0.067,0.0672,0.0618,0.0639,0.0709,0.0521,0.0517,0.0539,0.0701,0.0642,0.0648,0.0634,0.0638,0.0641,0.0629,0,0.0489,0.0564,0.055,0.0638,0.0679,0.0653,0.0724,0.0757,0.0765,0.082,0.0826,0.0861,0.0789,0.0789,0.0816,0.0723,0.0753,0.0719,0.058,0.0578,0.054,0.0666,0.0635,0.0622,0.0641,0.0643,0.0644,0,0.0589,0.0624,0.0727,0.0788,0.0807,0.0852,0.095,0.0998,0.1063,0.107,0.1127,0.1082,0.1149,0.103,0.1017,0.0982,0.0888,0.0812,0.0807,0.0714,0.0545,0.053,0.0644,0.0435,0.0663,0.0662,0.066,0,0.068,0.0753,0.0844,0.0859,0.0915,0.0978,0.1016,0.1084,0.1142,0.1221,0.1253,0.1301,0.1299,0.1236,0.1085,0.1044,0.1021,0.093,0.0807,0.0798,0.0735,0.0716,0.067,0.095,0.095,0.095,0.095,0,0.0784,0.0849,0.0888,0.0929,0.1035,0.1056,0.1172,0.1217,0.1299,0.1381,0.1377,0.1439,0.1344,0.1296,0.1162,0.1036,0.1082,0.0895,0.0823,0.079,0.0777,0.0557,0.0466,0.095,0.095,0.095,0.095,0,0.0853,0.0885,0.0971,0.1047,0.1071,0.1139,0.1223,0.1306,0.1375,0.148,0.1507,0.1547,0.1504,0.1383,0.1258,0.1123,0.0898,0.0932,0.0895,0.0821,0.0526,0.0447,0.0402,0.0325,0.0837,0.0836,0.0835,0,0.0895,0.0951,0.1025,0.1064,0.1093,0.1181,0.1243,0.1329,0.1411,0.1543,0.1603,0.1613,0.163,0.1448,0.1229,0.1029,0.0862,0.0839,0.0793,0.057,0.0426,0.0377,0.0312,0.076,0.0759,0.0758,0.0757,0,0.0959,0.0978,0.103,0.1104,0.1169,0.1254,0.135,0.1423,0.1538,0.1628,0.1741,0.1773,0.1636,0.1453,0.1179,0.102,0.0711,0.0808,0.06,0.0424,0.0351,0.0217,0.0678,0.0746,0.0747,0.0748,0.0749,0.0749,0.0979,0.1011,0.1068,0.1142,0.1217,0.1325,0.1393,0.1503,0.1632,0.1772,0.1817,0.1877,0.1605,0.1263,0.1024,0.0558,0.0629,0.0411,0.0349,0.0332,0.0233,0.0675,0.0637,0.0638,0.0638,0.0638,0.0638,0,0.0994,0.1033,0.1103,0.119,0.1273,0.1317,0.1463,0.1538,0.1668,0.1801,0.1892,0.1798,0.1418,0.1041,0.0461,0.0144,0.004,-0.0033,-0.0117,-0.0149,0.0253,0.022,0.0063,0.0063,0.0063,0.0063,0.0063,0.0064,0.1003,0.105,0.109,0.1217,0.1284,0.1396,0.1473,0.1592,0.1707,0.1837,0.1888,0.1943,0.1615,0.0562,-0.0167,-0.0319,-0.0545,-0.056,-0.0662,-0.0434,-0.0399,-0.0365,-0.042,-0.0708,-0.0709,-0.1048,-0.1051,-0.1054]}],[{"header":{"parameterUnit":"m.s-1","parameterCategory":2,"la1":30.2991,"la2":30.254,"lo1":-89.0895,"lo2":-89.0444,"dy":0.0017,"dx":0.0017,"nx":28,"ny":28,"refTime":"2025-06-01T21:00:00:Z","depth":"2","parameterNumber":2,"parameterNumberName":"U-component_of_CURRENTS"},"data":[0,0,0,0,0,0,0,0,0,0,0,0,0,0,0,0,0,0,0,0,0,0,0,0,0,0,0,0,0,0,0,0,0,0,0,0,0,0,0,0,0,0,0,0,0,0,0,0,0,0,0,0,0,0,0,0,0,0,0.1538,0.1538,0,0.1559,0.156,0.156,0.1589,0.1589,0.159,0.1591,0.1583,0.1582,0.1582,0,0,0,0,0,0,0,0,0,0,0,0,0,0.1472,0.1473,0.1538,0.1538,0.1539,0.1559,0.156,0.156,0.1589,0.1589,0.159,0.1591,0.1584,0.1583,0.1582,0,0,0,0,0,0,0,0,0,0,0,0,0,0.1496,0.1474,0.1538,0.1558,0.156,0.1559,0.156,0.156,0.1588,0.1589,0.1591,0.1592,0.1584,0.1583,0.1581,0.1552,0,0,0.1577,0.1577,0,0,0,0,0,0,0,0,0.1494,0.1498,0.1554,0.1556,0.1559,0.1575,0.1534,0.1557,0.1588,0.1575,0.1591,0.1592,0.1578,0.1578,0.1576,0.1552,0.1552,0.1577,0.1577,0.1576,0.1576,0,0,0,0,0,0,0,0.1493,0.1497,0.1544,0.1555,0.1558,0.1549,0.1553,0.1538,0.1568,0.1576,0.1579,0.1585,0.1579,0.1578,0.1576,0.1551,0.1577,0.1576,0.1575,0.1575,0.1653,0.1656,0,0,0,0,0,0,0.1497,0.1496,0.1543,0.1545,0.1531,0.1549,0.1554,0.1566,0.1569,0.1571,0.1584,0.1586,0.1579,0.1578,0.1576,0.1669,0.1576,0.1575,0.1574,0.165,0.1654,0.1657,0,0,0,0,0,0,0.1495,0.1501,0.1543,0.1522,0.1527,0.155,0.1563,0.1566,0.1586,0.1576,0.1577,0.1603,0.158,0.1578,0.1605,0.1664,0.1574,0.1573,0.1647,0.1651,0.1655,0.1772,0,0,0,0,0,0,0.1493,0.15,0.1511,0.1523,0.1529,0.1567,0.1562,0.1566,0.1588,0.1591,0.1591,0.1591,0.1581,0.1607,0.1604,0.166,0.1572,0.1643,0.1649,0.1654,0.1764,0.1779,0.1792,0,0,0,0,0,0.1491,0.1506,0.1511,0.1517,0.1543,0.1568,0.1571,0.1587,0.1588,0.1606,0.1618,0.1592,0.164,0.1608,0.1603,0.1661,0.1641,0.1647,0.1654,0.1758,0.1776,0.1792,0,0,0,0,0,0,0.1485,0.1511,0.1517,0.154,0.1563,0.1575,0.1593,0.1596,0.1617,0.1625,0.1611,0.1612,0.1665,0.1642,0.1608,0.1703,0.1642,0.1648,0.1723,0.174,0.1754,0.1775,0.1571,0,0,0,0,0,0.1487,0.1511,0.1529,0.1554,0.1566,0.1579,0.159,0.1604,0.1621,0.1632,0.1638,0.1653,0.1682,0.1694,0.1706,0.1739,0.17,0.178,0.1794,0.1806,0.1823,0.1855,0.1873,0.1678,0.1678,0.1678,0,0,0.1488,0.1511,0.1522,0.1555,0.1573,0.1612,0.159,0.1621,0.1668,0.1625,0.1692,0.1695,0.1702,0.176,0.1782,0.1751,0.1827,0.1814,0.1824,0.1835,0.1864,0.1882,0.1899,0.1682,0.1682,0.1681,0,0,0.1519,0.153,0.1564,0.1591,0.1628,0.1641,0.1656,0.1682,0.171,0.1753,0.1761,0.1813,0.1819,0.187,0.1887,0.1982,0.1901,0.1975,0.2062,0.2094,0.211,0.2124,0.2031,0.2036,0.1983,0.1984,0.1984,0,0.153,0.1573,0.1577,0.1627,0.1658,0.1663,0.1711,0.1742,0.178,0.1815,0.1793,0.1872,0.1888,0.1984,0.2035,0.2019,0.1966,0.1994,0.2112,0.2125,0.2137,0.204,0.2044,0.199,0.1989,0.1989,0.1988,0,0.1585,0.1629,0.1655,0.1724,0.1752,0.1797,0.1836,0.188,0.19,0.1931,0.2013,0.2033,0.2086,0.2108,0.2102,0.2211,0.2116,0.2122,0.2065,0.2164,0.2054,0.2056,0.1999,0.1997,0.1995,0.1993,0,0,0.1599,0.1679,0.1695,0.1716,0.1808,0.1815,0.1925,0.2,0.2033,0.21,0.2148,0.2262,0.2263,0.2285,0.2288,0.2326,0.2363,0.2265,0.2264,0.2164,0.2327,0.2241,0.2232,0.238,0.2382,0.2385,0.2189,0,0.1652,0.1724,0.1778,0.1848,0.1871,0.1935,0.2014,0.2083,0.2122,0.2165,0.2243,0.2289,0.2332,0.2338,0.2405,0.2375,0.2384,0.2408,0.2255,0.2248,0.2156,0.2241,0.2146,0.1966,0.2191,0.2191,0.2191,0,0.17,0.1727,0.1802,0.186,0.1881,0.1944,0.2021,0.2094,0.2196,0.2221,0.2318,0.2338,0.2454,0.2434,0.2484,0.2486,0.2431,0.239,0.2382,0.2273,0.2171,0.1919,0.196,0.2193,0.2193,0.2193,0.2193,0,0.1642,0.1746,0.1789,0.1818,0.1897,0.1959,0.2022,0.2123,0.216,0.2264,0.226,0.2397,0.24,0.2452,0.2421,0.2453,0.2371,0.2404,0.2256,0.2241,0.212,0.2094,0.2417,0.2417,0.2417,0.2418,0.2419,0,0.166,0.1693,0.1762,0.1767,0.181,0.1903,0.1965,0.2039,0.2126,0.2154,0.2286,0.2281,0.2407,0.238,0.239,0.231,0.2362,0.2277,0.2223,0.2149,0.2128,0.2313,0.2304,0.2411,0.2412,0.2414,0.2415,0,0.16,0.1666,0.167,0.1737,0.178,0.1796,0.192,0.1944,0.2046,0.2073,0.2112,0.2183,0.2191,0.2222,0.2215,0.2216,0.2179,0.211,0.1953,0.189,0.202,0.2019,0.198,0.1976,0.1973,0.197,0.1968,0,0.1579,0.1579,0.1599,0.1603,0.1652,0.1718,0.1772,0.1897,0.192,0.1999,0.198,0.2002,0.2002,0.1931,0.1956,0.1924,0.1997,0.1771,0.1893,0.2043,0.1993,0.1997,0.2001,0.1719,0.1715,0.1712,0.1709,0,0.1484,0.149,0.1473,0.1491,0.1531,0.1571,0.1658,0.1656,0.179,0.1799,0.1799,0.1813,0.1784,0.1743,0.169,0.1677,0.1811,0.1703,0.1911,0.1871,0.1791,0.1744,0.1758,0.1679,0.1682,0.1685,0.1686,0.1687,0.1381,0.1345,0.1335,0.1367,0.1416,0.1448,0.1471,0.1518,0.1537,0.158,0.1608,0.1578,0.1589,0.1499,0.146,0.146,0.159,0.1573,0.1587,0.1603,0.1635,0.1559,0.1399,0.14,0.1401,0.1402,0.1403,0,0.1234,0.1246,0.1234,0.1256,0.1294,0.1388,0.1419,0.1406,0.1401,0.1408,0.1428,0.1254,0.1245,0.1266,0.1245,0.1262,0.1288,0.122,0.1272,0.1302,0.1329,0.1351,0.1036,0.1035,0.1033,0.1032,0,0,0.1144,0.1086,0.1108,0.1149,0.1231,0.1282,0.1307,0.1251,0.1221,0.1111,0.1084,0.1187,0.1201,0.1071,0.1092,0.1069,0.117,0.1031,0.1329,0.1418,0.1443,0.1538,0.1606,0,0,0,0,0]},{"header":{"parameterUnit":"m.s-1","parameterCategory":2,"la1":30.2991,"la2":30.254,"lo1":-89.0895,"lo2":-89.0444,"dy":0.0017,"dx":0.0017,"nx":28,"ny":28,"refTime":"2025-06-01T21:00:00:Z","depth":"2","parameterNumber":3,"parameterNumberName":"V-component_of_CURRENTS"},"data":[0,0,0,0,0,0,0,0,0,0,0,0,0,0,0,0,0,0,0,0,0,0,0,0,0,0,0,0,0,0,0,0,0,0,0,0,0,0,0,0,0,0,0,0,0,0,0,0,0,0,0,0,0,0,0,0,0,0,-0.0409,-0.041,0,-0.0476,-0.0476,-0.0476,-0.0475,-0.0475,-0.0475,-0.0475,-0.0514,-0.0515,-0.0516,0,0,0,0,0,0,0,0,0,0,0,0,0,-0.0166,-0.0171,-0.0409,-0.041,-0.0412,-0.0476,-0.0476,-0.0476,-0.0475,-0.0475,-0.0475,-0.0474,-0.0513,-0.0515,-0.0516,0,0,0,0,0,0,0,0,0,0,0,0,0,-0.025,-0.0172,-0.0409,-0.0424,-0.0427,-0.0476,-0.0476,-0.0476,-0.0476,-0.0475,-0.0475,-0.0474,-0.0513,-0.0514,-0.0516,-0.0537,0,0,-0.0522,-0.0523,0,0,0,0,0,0,0,0,-0.0245,-0.0258,-0.042,-0.0423,-0.0426,-0.0473,-0.0405,-0.0497,-0.0476,-0.045,-0.0475,-0.0474,-0.0502,-0.0505,-0.0509,-0.0538,-0.054,-0.0522,-0.0524,-0.0524,-0.0525,0,0,0,0,0,0,0,-0.024,-0.0255,-0.0429,-0.0422,-0.0426,-0.0389,-0.04,-0.0421,-0.0472,-0.0452,-0.0454,-0.0472,-0.0502,-0.0507,-0.051,-0.0541,-0.0522,-0.0524,-0.0525,-0.0526,-0.048,-0.0477,0,0,0,0,0,0,-0.0253,-0.0251,-0.0427,-0.0431,-0.034,-0.0394,-0.0407,-0.0453,-0.0472,-0.0477,-0.0472,-0.0472,-0.0504,-0.0508,-0.0511,-0.045,-0.0524,-0.0526,-0.0527,-0.0482,-0.0479,-0.0477,0,0,0,0,0,0,-0.0248,-0.0269,-0.0424,-0.0345,-0.0363,-0.0401,-0.0451,-0.0454,-0.0448,-0.0489,-0.0492,-0.0462,-0.0504,-0.0509,-0.0485,-0.0455,-0.0527,-0.0529,-0.0485,-0.0481,-0.0478,-0.0384,0,0,0,0,0,0,-0.0241,-0.0267,-0.0284,-0.0348,-0.0369,-0.043,-0.0452,-0.0456,-0.0464,-0.0463,-0.0481,-0.0485,-0.0504,-0.0481,-0.0487,-0.0459,-0.053,-0.0488,-0.0483,-0.0479,-0.039,-0.0378,-0.0367,0,0,0,0,0,-0.0232,-0.0269,-0.0285,-0.0306,-0.0399,-0.043,-0.0435,-0.0454,-0.0464,-0.0448,-0.0444,-0.0484,-0.0457,-0.0481,-0.0488,-0.046,-0.049,-0.0485,-0.0479,-0.0395,-0.038,-0.0367,0,0,0,0,0,0,-0.0174,-0.0275,-0.0294,-0.036,-0.038,-0.0432,-0.043,-0.0446,-0.0435,-0.0421,-0.0458,-0.046,-0.0428,-0.0452,-0.0478,-0.0429,-0.0479,-0.0475,-0.0413,-0.0399,-0.0387,-0.0414,-0.0532,0,0,0,0,0,-0.0173,-0.0206,-0.0291,-0.0319,-0.0346,-0.0382,-0.0393,-0.0399,-0.0413,-0.0407,-0.0411,-0.0412,-0.0415,-0.0411,-0.0411,-0.0392,-0.0477,-0.0375,-0.0364,-0.0354,-0.0377,-0.0458,-0.0457,-0.0459,-0.0459,-0.0459,0,0,-0.0158,-0.0206,-0.023,-0.0303,-0.0326,-0.033,-0.0385,-0.0389,-0.0361,-0.0414,-0.0357,-0.0373,-0.0399,-0.0363,-0.0352,-0.0379,-0.0396,-0.0347,-0.0339,-0.0368,-0.0453,-0.0453,-0.0454,-0.0455,-0.0456,-0.0456,0,0,-0.0117,-0.019,-0.0201,-0.0215,-0.0244,-0.0271,-0.0271,-0.0304,-0.0294,-0.0253,-0.0281,-0.0281,-0.0263,-0.0285,-0.0297,-0.0228,-0.0331,-0.0212,-0.0181,-0.0257,-0.0259,-0.0262,-0.0376,-0.039,-0.0207,-0.0207,-0.0207,0,-0.0088,-0.0133,-0.0196,-0.0189,-0.0206,-0.0242,-0.0242,-0.0227,-0.0222,-0.0232,-0.0211,-0.0232,-0.0233,-0.0259,-0.0208,-0.0207,-0.028,-0.0233,-0.0247,-0.0252,-0.0257,-0.0373,-0.0389,-0.0202,-0.0202,-0.0203,-0.0203,0,-0.0058,-0.0076,-0.0079,-0.0093,-0.0103,-0.0105,-0.0124,-0.0104,-0.0099,-0.0105,-0.011,-0.012,-0.0146,-0.0133,-0.0139,-0.0171,-0.0222,-0.0226,-0.0294,-0.0252,-0.0375,-0.0395,-0.0194,-0.0196,-0.0198,-0.0199,0,0,-0.006,-0.0067,-0.0061,-0.0076,-0.0066,-0.0095,-0.0037,-0.0063,-0.008,-0.0033,-0.0075,-0.0038,-0.007,-0.0086,-0.0113,-0.0168,-0.0236,-0.0193,-0.0199,-0.0327,-0.0441,-0.0345,-0.0358,-0.0242,-0.0244,-0.0246,-0.0518,0,-0.0026,-0.0028,-0.0017,-0.0001,-0.0045,-0.0039,-0.0002,-0.0,-0.0011,-0.0037,-0.0063,-0.0077,-0.0043,-0.0064,-0.0103,-0.0198,-0.028,-0.0165,-0.0446,-0.0456,-0.0392,-0.0374,-0.0288,-0.051,-0.0538,-0.0541,-0.0544,0,-0.0025,-0.0041,-0.0044,-0.0051,-0.0066,-0.0025,-0.007,-0.0024,-0.0042,-0.0056,-0.0078,-0.0096,-0.013,-0.0122,-0.0277,-0.0201,-0.0311,-0.0402,-0.0415,-0.0378,-0.0393,-0.0552,-0.0545,-0.0577,-0.0574,-0.0572,-0.057,0,-0.0099,-0.0069,-0.0093,-0.0088,-0.0082,-0.0067,-0.0034,-0.0039,-0.0045,-0.0065,-0.011,-0.0143,-0.0195,-0.0284,-0.0374,-0.0336,-0.0604,-0.0581,-0.0636,-0.0634,-0.0644,-0.0635,-0.0755,-0.0755,-0.0754,-0.0753,-0.0752,0,-0.0134,-0.0143,-0.0125,-0.0152,-0.0165,-0.0114,-0.0121,-0.0106,-0.0106,-0.0122,-0.0112,-0.0175,-0.0238,-0.036,-0.0433,-0.0571,-0.0643,-0.0649,-0.0688,-0.0603,-0.0588,-0.0705,-0.0695,-0.0763,-0.0761,-0.0759,-0.0757,0,-0.0214,-0.0193,-0.0233,-0.0224,-0.0211,-0.0212,-0.0148,-0.0156,-0.0144,-0.0178,-0.0171,-0.024,-0.0331,-0.0441,-0.0637,-0.0664,-0.0798,-0.0862,-0.0759,-0.0774,-0.0781,-0.0763,-0.0935,-0.0934,-0.0932,-0.0932,-0.0931,0,-0.0251,-0.0295,-0.0312,-0.0308,-0.0285,-0.026,-0.0233,-0.0184,-0.0181,-0.0207,-0.0236,-0.0333,-0.0352,-0.0594,-0.0646,-0.0779,-0.0858,-0.085,-0.0721,-0.0774,-0.0796,-0.078,-0.0764,-0.074,-0.0737,-0.0735,-0.0734,0,-0.0344,-0.0351,-0.0378,-0.0382,-0.0354,-0.0336,-0.0277,-0.0292,-0.0219,-0.0229,-0.0234,-0.0236,-0.039,-0.0425,-0.0594,-0.0675,-0.0773,-0.0809,-0.0952,-0.0646,-0.0594,-0.0613,-0.0604,-0.0717,-0.0719,-0.072,-0.0721,-0.0722,-0.0403,-0.0421,-0.0438,-0.0423,-0.0393,-0.0352,-0.0309,-0.0252,-0.0208,-0.0101,-0.0159,-0.0084,-0.0215,-0.0283,-0.0454,-0.0621,-0.0639,-0.0699,-0.0706,-0.0714,-0.058,-0.0521,-0.0613,-0.0614,-0.0615,-0.0615,-0.0616,0,-0.0464,-0.0449,-0.0455,-0.0418,-0.0366,-0.0343,-0.0291,-0.0206,-0.0098,0.0022,0.0121,0.0106,0.0039,-0.0147,-0.0325,-0.046,-0.0483,-0.0544,-0.0546,-0.056,-0.0574,-0.0433,-0.0428,-0.0428,-0.0428,-0.0428,0,0,-0.0499,-0.0484,-0.046,-0.0371,-0.0323,-0.0224,-0.0171,-0.0051,0.0062,0.0243,0.036,0.0458,0.0181,0.0092,-0.0135,-0.0276,-0.0381,-0.0301,-0.043,-0.0417,-0.0428,-0.0638,-0.0433,0,0,0,0,0]}],[{"header":{"parameterUnit":"m.s-1","parameterCategory":2,"la1":30.2991,"la2":30.254,"lo1":-89.0895,"lo2":-89.0444,"dy":0.0017,"dx":0.0017,"nx":28,"ny":28,"refTime":"2025-06-01T21:00:00:Z","depth":"4","parameterNumber":2,"parameterNumberName":"U-component_of_CURRENTS"},"data":[0,0,0,0,0,0,0,0,0,0,0,0,0,0,0,0,0,0,0,0,0,0,0,0,0,0,0,0,0,0,0,0,0,0,0,0,0,0,0,0,0,0,0,0,0,0,0,0,0,0,0,0,0,0,0,0,0,0,0.0292,0.0292,0,0.033,0.0331,0.0331,0.0403,0.0404,0.0405,0.0406,0.0536,0.0538,0.0541,0,0,0,0,0,0,0,0,0,0,0,0,0,0.0324,0.0323,0.0292,0.0292,0.0292,0.033,0.0331,0.0332,0.0403,0.0404,0.0405,0.0407,0.0535,0.0538,0.0541,0,0,0,0,0,0,0,0,0,0,0,0,0,0.0335,0.0323,0.0292,0.0329,0.0332,0.033,0.0331,0.0332,0.0403,0.0404,0.0406,0.0407,0.0534,0.0538,0.0542,0.0536,0,0,0.0553,0.0555,0,0,0,0,0,0,0,0,0.0334,0.0334,0.0323,0.0326,0.033,0.0359,0.0389,0.0403,0.0402,0.0381,0.0406,0.0408,0.0481,0.049,0.0499,0.0542,0.0547,0.0554,0.0556,0.0557,0.0559,0,0,0,0,0,0,0,0.0333,0.0333,0.0312,0.0323,0.0327,0.0358,0.0361,0.0392,0.0428,0.0383,0.0387,0.0383,0.0485,0.0495,0.0502,0.0549,0.0553,0.0557,0.0559,0.0561,0.0642,0.0642,0,0,0,0,0,0,0.0315,0.0332,0.031,0.0312,0.0331,0.0355,0.036,0.0352,0.0425,0.0436,0.0382,0.0387,0.0487,0.0498,0.0507,0.0548,0.0557,0.0561,0.0563,0.0642,0.0642,0.0642,0,0,0,0,0,0,0.0316,0.0313,0.0309,0.032,0.0321,0.0353,0.0344,0.0352,0.0393,0.0423,0.0437,0.0418,0.0489,0.0502,0.0555,0.0553,0.0563,0.0566,0.0643,0.0642,0.0642,0.0603,0,0,0,0,0,0,0.0316,0.0313,0.0316,0.0318,0.032,0.0326,0.0343,0.0352,0.0384,0.0391,0.0457,0.0469,0.0491,0.0549,0.0559,0.0558,0.0569,0.0643,0.0642,0.0642,0.0605,0.0602,0.0599,0,0,0,0,0,0.0317,0.0307,0.0316,0.0314,0.0318,0.0326,0.0331,0.0362,0.0384,0.0405,0.0446,0.0469,0.0554,0.0553,0.0564,0.0564,0.0643,0.0643,0.0642,0.0606,0.0602,0.0599,0,0,0,0,0,0,0.0317,0.0312,0.0323,0.0311,0.0328,0.0337,0.0352,0.0374,0.0421,0.0439,0.0476,0.049,0.0529,0.0555,0.0552,0.0586,0.0599,0.0601,0.0567,0.0564,0.0562,0.0561,0.0572,0,0,0,0,0,0.0316,0.0311,0.0318,0.031,0.032,0.0343,0.0356,0.0378,0.0407,0.0431,0.0471,0.0509,0.0529,0.0557,0.0582,0.0612,0.063,0.0616,0.0613,0.0611,0.0617,0.0631,0.063,0.0641,0.0641,0.0641,0,0,0.031,0.0308,0.0305,0.0311,0.0327,0.0339,0.0357,0.038,0.0397,0.0437,0.0484,0.0505,0.0534,0.0557,0.0577,0.0587,0.0617,0.0611,0.0608,0.0616,0.0631,0.063,0.0629,0.0641,0.0641,0.0641,0,0,0.0292,0.03,0.0296,0.0312,0.0335,0.0349,0.0362,0.039,0.0418,0.0455,0.0475,0.0498,0.0551,0.0555,0.0566,0.0567,0.0598,0.0578,0.0572,0.0584,0.0584,0.0583,0.0602,0.0603,0.0581,0.0581,0.0581,0,0.0291,0.0283,0.0299,0.0305,0.0318,0.0356,0.0368,0.0391,0.0435,0.0454,0.0473,0.052,0.0542,0.0552,0.0546,0.056,0.058,0.058,0.058,0.058,0.058,0.06,0.0602,0.0579,0.0579,0.058,0.058,0,0.0275,0.0279,0.0279,0.03,0.0319,0.0335,0.0365,0.0398,0.0434,0.0454,0.0487,0.0506,0.0538,0.0533,0.0542,0.0547,0.0565,0.0569,0.0586,0.0577,0.0598,0.0601,0.0576,0.0577,0.0578,0.0578,0,0,0.0245,0.0265,0.0269,0.0281,0.0323,0.0333,0.0366,0.04,0.0426,0.0462,0.0489,0.0498,0.0518,0.053,0.0536,0.054,0.0546,0.0558,0.056,0.0573,0.0587,0.0581,0.0584,0.0555,0.0556,0.0556,0.06,0,0.0235,0.0239,0.0258,0.0275,0.0284,0.033,0.0355,0.0395,0.0434,0.0472,0.0488,0.0518,0.0514,0.0531,0.0531,0.0552,0.0554,0.0535,0.0598,0.06,0.0593,0.0587,0.0557,0.0602,0.0603,0.0603,0.0604,0,0.0221,0.0224,0.0233,0.0265,0.0276,0.0297,0.0354,0.0383,0.044,0.0473,0.0505,0.0533,0.055,0.0544,0.0572,0.0567,0.0575,0.0579,0.0581,0.0594,0.06,0.0616,0.0609,0.0609,0.0608,0.0608,0.0608,0,0.0191,0.0211,0.0218,0.0229,0.0268,0.0291,0.0327,0.0386,0.0424,0.0482,0.0519,0.0547,0.058,0.0588,0.062,0.0601,0.0656,0.0629,0.0626,0.0626,0.0636,0.0636,0.0636,0.0636,0.0636,0.0636,0.0635,0,0.0172,0.0175,0.0206,0.0207,0.023,0.0273,0.0316,0.0358,0.0429,0.048,0.052,0.0557,0.0595,0.0639,0.0639,0.0662,0.0678,0.0628,0.0636,0.0618,0.0616,0.0638,0.0637,0.0637,0.0637,0.0637,0.0636,0,0.0133,0.0153,0.0154,0.0192,0.0212,0.0231,0.0316,0.035,0.0421,0.0491,0.0517,0.0586,0.0635,0.0675,0.0707,0.0696,0.0709,0.0709,0.071,0.0718,0.0659,0.0656,0.0688,0.0688,0.0688,0.0688,0.0688,0,0.0112,0.0103,0.0136,0.0149,0.0168,0.0214,0.0252,0.0337,0.0386,0.0503,0.0532,0.061,0.0651,0.0689,0.0723,0.0745,0.073,0.0744,0.0664,0.0659,0.0664,0.0661,0.0658,0.0688,0.0688,0.0688,0.0688,0,0.0058,0.0069,0.0076,0.0106,0.0141,0.018,0.0249,0.0284,0.0396,0.0464,0.0538,0.0583,0.0641,0.0667,0.0717,0.0719,0.0738,0.0744,0.0742,0.0667,0.066,0.0664,0.0661,0.0689,0.0689,0.0689,0.0689,0,0.0021,0.0016,0.0036,0.0065,0.0104,0.0146,0.0184,0.0259,0.0321,0.0464,0.0485,0.0563,0.0632,0.0655,0.0692,0.0714,0.0676,0.0647,0.0649,0.0649,0.0619,0.0604,0.0625,0,0,0,0,0,-0.0014,-0.001,0.0002,0.0036,0.0076,0.0112,0.0186,0.0233,0.0345,0.0385,0.0443,0.0497,0.0562,0.0591,0.0601,0.066,0.0671,0.067,0.0636,0.0691,0.0691,0.0661,0,0,0,0,0,0,-0.0033,-0.0026,-0.0014,0.0013,0.0041,0.0089,0.0138,0.0208,0.0239,0.0348,0.037,0.0468,0.0514,0.0545,0.0588,0.0604,0.0574,0.0728,0.0727,0.0691,0.0691,0.0691,0.066,0,0,0,0,0]},{"header":{"parameterUnit":"m.s-1","parameterCategory":2,"la1":30.2991,"la2":30.254,"lo1":-89.0895,"lo2":-89.0444,"dy":0.0017,"dx":0.0017,"nx":28,"ny":28,"refTime":"2025-06-01T21:00:00:Z","depth":"4","parameterNumber":3,"parameterNumberName":"V-component_of_CURRENTS"},"data":[0,0,0,0,0,0,0,0,0,0,0,0,0,0,0,0,0,0,0,0,0,0,0,0,0,0,0,0,0,0,0,0,0,0,0,0,0,0,0,0,0,0,0,0,0,0,0,0,0,0,0,0,0,0,0,0,0,0,0.034,0.0341,0,0.0356,0.0356,0.0356,0.0319,0.0318,0.0317,0.0316,0.0141,0.0137,0.0133,0,0,0,0,0,0,0,0,0,0,0,0,0,0.022,0.0222,0.034,0.0341,0.0342,0.0356,0.0356,0.0356,0.0319,0.0318,0.0317,0.0316,0.0143,0.0138,0.0133,0,0,0,0,0,0,0,0,0,0,0,0,0,0.0253,0.0223,0.034,0.0328,0.0328,0.0357,0.0356,0.0356,0.0319,0.0318,0.0317,0.0316,0.0144,0.0138,0.0132,0.0118,0,0,0.0114,0.0112,0,0,0,0,0,0,0,0,0.0251,0.0257,0.033,0.0329,0.0329,0.0339,0.025,0.0268,0.0319,0.0317,0.0316,0.0315,0.0194,0.0184,0.0185,0.011,0.0102,0.0114,0.011,0.0108,0.0106,0,0,0,0,0,0,0,0.0249,0.0256,0.0342,0.0331,0.033,0.0303,0.0307,0.0253,0.0254,0.0317,0.0316,0.0326,0.0191,0.0191,0.018,0.0099,0.0114,0.0109,0.0105,0.0103,-0.0155,-0.0158,0,0,0,0,0,0,0.0262,0.0254,0.0341,0.0343,0.0292,0.0307,0.031,0.0333,0.0259,0.0249,0.0327,0.0324,0.0201,0.0187,0.0173,0.0007,0.0108,0.0102,0.0099,-0.0152,-0.0156,-0.0159,0,0,0,0,0,0,0.026,0.027,0.0341,0.0301,0.0309,0.0311,0.0336,0.0334,0.0316,0.0269,0.0255,0.031,0.02,0.0182,0.0087,0.0005,0.0099,0.0094,-0.0148,-0.0153,-0.0158,-0.0234,0,0,0,0,0,0,0.0256,0.0269,0.0281,0.0303,0.0312,0.0339,0.0337,0.0335,0.0328,0.0324,0.025,0.0234,0.0198,0.0096,0.0081,-0.0001,0.0089,-0.0144,-0.015,-0.0156,-0.0227,-0.0241,-0.0252,0,0,0,0,0,0.0252,0.0278,0.0282,0.0292,0.0332,0.0339,0.034,0.0334,0.0328,0.0314,0.025,0.0236,0.0046,0.0089,0.0072,-0.0014,-0.0141,-0.0148,-0.0156,-0.0221,-0.0238,-0.0252,0,0,0,0,0,0,0.0229,0.0278,0.0282,0.032,0.032,0.0334,0.033,0.0328,0.0275,0.0254,0.0207,0.0185,0.0069,0.0044,0.0093,-0.0108,-0.0055,-0.0066,-0.01,-0.0116,-0.0128,-0.0093,0.0084,0,0,0,0,0,0.0234,0.0261,0.0289,0.0311,0.0315,0.0319,0.032,0.0311,0.0279,0.0256,0.019,0.0111,0.003,-0.0027,-0.0093,-0.0194,-0.0149,-0.0266,-0.0278,-0.0288,-0.0273,-0.0258,-0.0265,-0.0183,-0.0183,-0.0183,0,0,0.0231,0.026,0.0275,0.0307,0.0308,0.0286,0.0314,0.0306,0.0257,0.0241,0.0127,0.0071,-0.0002,-0.0124,-0.0181,-0.0161,-0.0293,-0.0298,-0.0306,-0.0285,-0.0266,-0.0273,-0.0279,-0.0188,-0.0188,-0.0187,0,0,0.0215,0.0262,0.0261,0.0261,0.0264,0.0262,0.0256,0.0238,0.02,0.0102,0.0066,-0.0023,-0.016,-0.0222,-0.027,-0.0386,-0.0349,-0.0436,-0.0486,-0.0473,-0.0478,-0.0481,-0.0436,-0.0436,-0.0454,-0.0455,-0.0455,0,0.0196,0.0222,0.0256,0.024,0.0241,0.0244,0.022,0.0176,0.0112,0.0081,0.0043,-0.0131,-0.0205,-0.0316,-0.0385,-0.0414,-0.0382,-0.0422,-0.0484,-0.0486,-0.0489,-0.0442,-0.0439,-0.0459,-0.0459,-0.0458,-0.0458,0,0.0167,0.0181,0.018,0.0163,0.0155,0.0147,0.0107,0.0058,0.0004,-0.0037,-0.0158,-0.0252,-0.0339,-0.0411,-0.0452,-0.0531,-0.0493,-0.0485,-0.0431,-0.0501,-0.0448,-0.0444,-0.0466,-0.0464,-0.0463,-0.0461,0,0,0.0138,0.0159,0.0154,0.0162,0.0127,0.0133,0.0037,-0.0009,-0.0037,-0.0168,-0.0214,-0.0405,-0.0421,-0.0475,-0.0532,-0.0562,-0.0584,-0.0553,-0.055,-0.0481,-0.0527,-0.0516,-0.051,-0.0583,-0.0583,-0.0583,-0.0481,0,0.01,0.01,0.0097,0.0073,0.0083,0.0058,-0.0008,-0.0063,-0.0127,-0.0185,-0.029,-0.0369,-0.0457,-0.0497,-0.0549,-0.0564,-0.0578,-0.061,-0.0491,-0.0487,-0.0448,-0.0508,-0.0583,-0.0478,-0.0477,-0.0476,-0.0476,0,0.0061,0.0086,0.0075,0.0099,0.0096,0.0056,0.0025,-0.0035,-0.0122,-0.0172,-0.0267,-0.0324,-0.0428,-0.0468,-0.0525,-0.054,-0.0543,-0.0551,-0.0547,-0.05,-0.0471,-0.0397,-0.0468,-0.0469,-0.0469,-0.047,-0.047,0,0.0075,0.0072,0.0087,0.0086,0.0084,0.0059,0.0035,-0.0036,-0.0057,-0.0151,-0.0165,-0.0282,-0.0323,-0.0371,-0.0448,-0.0474,-0.0456,-0.0474,-0.0454,-0.0451,-0.0449,-0.0446,-0.0472,-0.0472,-0.0473,-0.0473,-0.0473,0,0.007,0.0077,0.0101,0.0116,0.0131,0.0099,0.0089,0.0041,-0.0005,-0.0011,-0.0145,-0.0159,-0.0301,-0.033,-0.0394,-0.0416,-0.0407,-0.0456,-0.0432,-0.0487,-0.049,-0.0445,-0.0443,-0.0469,-0.047,-0.0471,-0.0471,0,0.0076,0.0089,0.0121,0.0139,0.0143,0.0148,0.0144,0.0143,0.0084,0.0077,0.0051,-0.005,-0.0105,-0.0211,-0.0261,-0.0324,-0.035,-0.0347,-0.0372,-0.0351,-0.0358,-0.0362,-0.0307,-0.0306,-0.0305,-0.0304,-0.0304,0,0.0082,0.0102,0.0153,0.0179,0.0181,0.0194,0.0206,0.0176,0.0184,0.0153,0.0164,0.01,0.0021,-0.004,-0.0155,-0.0242,-0.0272,-0.0272,-0.0369,-0.0363,-0.0345,-0.0351,-0.0356,-0.0303,-0.0302,-0.0302,-0.0302,0,0.0098,0.0109,0.0145,0.0207,0.0235,0.0282,0.0295,0.0312,0.0285,0.0271,0.0246,0.0161,0.0115,-0.0007,-0.0081,-0.0149,-0.0281,-0.0264,-0.0267,-0.0359,-0.0357,-0.0341,-0.0347,-0.0299,-0.0299,-0.03,-0.03,0,0.0099,0.0125,0.0172,0.0219,0.0274,0.032,0.0335,0.0348,0.0355,0.0316,0.0334,0.023,0.0176,0.0051,-0.0005,-0.0096,-0.0133,-0.0179,-0.0188,-0.0192,-0.0225,-0.021,-0.0081,0,0,0,0,0,0.0102,0.0127,0.0179,0.0232,0.029,0.0321,0.0376,0.0386,0.0392,0.0382,0.0344,0.0291,0.0157,0.0108,0.0021,0.0007,-0.0145,-0.0096,-0.0203,-0.0282,-0.0286,-0.0348,0,0,0,0,0,0,0.0104,0.0145,0.0174,0.0231,0.0265,0.0327,0.0361,0.0371,0.0364,0.0355,0.0289,0.0264,0.0142,0.0194,0.0013,-0.001,-0.0089,-0.0151,-0.0153,-0.028,-0.0283,-0.0286,-0.0352,0,0,0,0,0]}]]